Flag for U.S.A. Weather past 2 weeks in Springfield, Illinois, U.S.A.

Now
47 °F

Light rain. Low clouds.


Feels Like: 41 °F
Forecast: 39 / 48 °F
Wind: 14 mph from Southeast

Location: Capital Airport

Current Time: Dec 22, 2014 at 7:08:01 PM

Latest Report: Dec 22, 2014 at 5:52 PM


Visibility: 8 mi

Pressure: 29.57 "Hg

Humidity: 97%

Dew point: 46 °F

Location of SpringfieldLocation

Historic Weather in Springfield — Graph

°F

Springfield temperature yesterday

Maximum temperature yesterday: 40 °F (at 2:59 PM)
Minimum temperature yesterday: 37 °F (at 12:52 AM)
Average temperature yesterday: 38 °F

Past Weeks' High & Low Weather Summary

 TemperatureHumidityPressure
High54 °F (Dec 13, 1:52 PM)100% (Dec 14, 5:52 AM)30.43 "Hg (Dec 14, 5:52 AM)
Low21 °F (Dec 17, 6:52 PM)59% (Dec 19, 11:52 AM)29.58 "Hg (Dec 22, 4:52 PM)
Average36 °F82%30.20 "Hg
* Reported Dec 7 4:52 PM — Dec 22 4:52 PM, Springfield, Weather by CustomWeather, © 2014

Note: Actual official high and low records may vary slightly from our data, if they occured in-between our weather recording intervals... More about our weather records

Advertising

Springfield weather history for previous 24 hours

 ConditionsComfort  
Time TempWeatherWind HumidityBarometerVisibility
4:52 PM
Dec 22
46 °FLight rain. Fog.10 mph100%29.58 "Hg3 mi
3:52 PM46 °FLight rain. Fog.12 mph96%29.59 "Hg3 mi
2:52 PM45 °FLight rain. Fog.12 mph100%29.61 "Hg3 mi
1:52 PM45 °FLight rain. Fog.15 mph97%29.62 "Hg3 mi
12:56 PM44 °FLight rain. Fog.14 mph96%29.64 "Hg3 mi
11:52 AM43 °FLight rain. Fog.15 mph97%29.69 "Hg2 mi
10:52 AM40 °FRain. Fog.15 mph97%29.72 "Hg2 mi
9:52 AM38 °FRain. Fog.15 mph97%29.77 "Hg2 mi
8:52 AM37 °FRain. Fog.16 mph89%29.78 "Hg2 mi
8:03 AM36 °FLight rain. Fog.13 mph89%29.81 "Hg2 mi
7:52 AM36 °FLight rain. Fog.10 mph89%29.82 "Hg2 mi
6:52 AM36 °FLight rain. Fog.13 mph85%29.84 "Hg5 mi
5:52 AM37 °FOvercast.12 mph79%29.85 "Hg9 mi
4:52 AM37 °FOvercast.13 mph76%29.87 "Hg10 mi
3:52 AM37 °FOvercast.12 mph79%29.89 "Hg9 mi
2:52 AM38 °FLight rain. Overcast.12 mph79%29.93 "Hg10 mi
1:52 AM39 °FOvercast.14 mph70%29.94 "Hg10 mi
12:52 AM40 °FMostly cloudy.16 mph68%29.94 "Hg10 mi
11:52 PM
Dec 21
40 °FMostly cloudy.15 mph68%29.96 "Hg10 mi
10:52 PM39 °FMostly cloudy.9 mph73%29.98 "Hg10 mi
9:52 PM39 °FOvercast.14 mph70%29.98 "Hg10 mi
8:52 PM39 °FOvercast.16 mph70%30.01 "Hg10 mi
7:52 PM39 °FOvercast.14 mph70%30.03 "Hg10 mi
Weather by CustomWeather, © 2014

See weather overviewHow to use our weather pages